Weather History for Enid Vance AFB, OK

Change the Weather History Date:

Wednesday, July 24, 2013

  Actual Average Record
Temperature  
Mean Temperature 78 °F -  
Max Temperature 90 °F 93 °F 106 °F (2011)
Min Temperature 66 °F 71 °F 55 °F (2006)
Cooling Degree Days 12    
Growing Degree Days 28 (Base 50)    
Moisture  
Dew Point 68 °F    
Average Humidity 76    
Maximum Humidity 100    
Minimum Humidity 52    
Precipitation  
Precipitation 0.00 in - - ()
Sea Level Pressure  
Sea Level Pressure 29.96 in    
Wind  
Wind Speed 12 mph (East)    
Max Wind Speed 18 mph    
Max Gust Speed 28 mph    
Visibility 10 miles    
Events Rain , Thunderstorm    
Averages and records for this station are not official NWS values.
T = Trace of Precipitation, MM = Missing Value Source: NWS Daily Summary

Daily Weather History Graph

Daily Weather History Graph

Search for Another Location

Airport:

Trip Planner

Search our weather history database for the weather conditions in past years. The results will help you decide how hot, cold, wet, or windy it might be!

Date:

Astronomy

Jul. 24, 2013 Rise Set
Actual Time 6:32 AM CDT 8:43 PM CDT
Civil Twilight 6:03 AM CDT 9:12 PM CDT
Nautical Twilight 5:27 AM CDT 9:47 PM CDT
Astronomical Twilight 4:49 AM CDT 10:26 PM CDT
Moon 9:57 PM CDT (7/24) 8:48 AM CDT (7/24)
Length of Visible Light 15h 09m
Length of Day
14h 11m
Waning Gibbous, 94% of the Moon is Illuminated
Jul 24
Waning Gibbous
Jul 29
Last Quarter
Aug 6
New
Aug 14
First Quarter
Aug 20
Full

Hourly Weather History & Observations

Time (CDT) Temp. Heat Index Dew Point Humidity Pressure Visibility Wind Dir Wind Speed Gust Speed Precip Events Conditions
12:58 AM 76.8 °F - 65.7 °F 68% 29.89 in 10.0 mi NE 17.3 mph 27.6 mph N/A   Clear
1:58 AM 73.9 °F - 63.0 °F 68% 29.87 in 10.0 mi East 13.8 mph - N/A   Partly Cloudy
2:58 AM 72.1 °F - 63.1 °F 73% 29.85 in 10.0 mi ESE 8.1 mph - N/A   Mostly Cloudy
3:24 AM 71.6 °F - 62.6 °F 73% 29.89 in 10.0 mi ESE 5.8 mph - N/A   Mostly Cloudy
3:55 AM 73.4 °F - 62.6 °F 69% 29.88 in 10.0 mi North 12.7 mph - N/A   Mostly Cloudy
4:05 AM 71.6 °F - 64.4 °F 78% 29.97 in 4.0 mi ENE 11.5 mph 20.7 mph N/A Rain , Thunderstorm Light Thunderstorms and Rain
4:55 AM 68.0 °F - 68.0 °F 100% 29.95 in 4.0 mi East 15.0 mph 26.5 mph N/A Rain , Thunderstorm Light Thunderstorms and Rain
5:45 AM 66.2 °F - 66.2 °F 100% 29.99 in 9.0 mi SE 18.4 mph - N/A Rain , Thunderstorm Light Rain
5:55 AM 66.2 °F - 66.2 °F 100% 29.95 in 9.0 mi SE 15.0 mph 23.0 mph N/A Rain , Thunderstorm Light Rain
6:27 AM 68.0 °F - 68.0 °F 100% 29.98 in 10.0 mi SE 16.1 mph - N/A   Mostly Cloudy
6:55 AM 68.0 °F - 68.0 °F 100% 29.95 in 10.0 mi SSE 11.5 mph - N/A   Mostly Cloudy
7:55 AM 68.0 °F - 68.0 °F 100% 29.98 in 10.0 mi South 6.9 mph - N/A   Mostly Cloudy
8:55 AM 71.6 °F - 69.8 °F 94% 29.98 in 10.0 mi West 4.6 mph - N/A   Mostly Cloudy
9:55 AM 75.2 °F - 69.8 °F 83% 29.96 in 10.0 mi WNW 6.9 mph - N/A   Scattered Clouds
10:55 AM 77.0 °F - 69.8 °F 78% 29.99 in 10.0 mi NNW 8.1 mph - N/A   Partly Cloudy
11:55 AM 80.6 °F 83.2 °F 68.0 °F 65% 29.98 in 10.0 mi North 8.1 mph - N/A   Partly Cloudy
12:55 PM 84.2 °F 87.3 °F 68.0 °F 58% 29.98 in 10.0 mi North 8.1 mph - N/A   Partly Cloudy
1:55 PM 86.0 °F 89.4 °F 68.0 °F 55% 29.98 in 10.0 mi NE 9.2 mph - N/A   Partly Cloudy
2:55 PM 87.8 °F 92.6 °F 69.8 °F 55% 29.98 in 10.0 mi North 11.5 mph - N/A   Partly Cloudy
3:56 PM 89.6 °F 94.7 °F 69.8 °F 52% 29.95 in 10.0 mi Variable 6.9 mph - N/A   Scattered Clouds
4:55 PM 89.6 °F 94.7 °F 69.8 °F 52% 29.95 in 10.0 mi East 12.7 mph - N/A   Partly Cloudy
5:56 PM 89.6 °F 94.7 °F 69.8 °F 52% 29.94 in 10.0 mi ENE 12.7 mph - N/A   Partly Cloudy
6:58 PM 88.2 °F 92.5 °F 69.1 °F 53% 29.94 in 10.0 mi East 10.4 mph - N/A   Clear
7:58 PM 85.3 °F 89.8 °F 70.0 °F 60% 29.96 in 10.0 mi East 8.1 mph - N/A   Clear
8:58 PM 80.6 °F 84.6 °F 71.6 °F 74% 29.97 in 10.0 mi East 6.9 mph - N/A   Clear
9:58 PM 77.9 °F - 72.0 °F 82% 30.00 in 10.0 mi East 6.9 mph - N/A   Clear
10:58 PM 76.8 °F - 72.3 °F 86% 30.02 in 10.0 mi SE 4.6 mph - N/A   Clear
11:58 PM 76.3 °F - 73.0 °F 90% 30.01 in 10.0 mi SE 4.6 mph - N/A   Clear